| time (UTC) | temp F | wind direction | speed MPH | gust MPH | rain 1hr in | rain 24hr in | rain mn in | humidity % | barometer mb |
| 20260903202818 | 76 | 248 | 2.0 | 5.0 | 0.00 | 0.05 | 0.05 | 79 | 991.6 |
| 20260903201818 | 76 | 225 | 3.0 | 6.0 | 0.00 | 0.05 | 0.05 | 80 | 991.5 |
| 20260903200818 | 75 | 203 | 2.0 | 5.0 | 0.00 | 0.05 | 0.05 | 80 | 991.6 |
| 20260903195818 | 75 | 203 | 1.0 | 3.0 | 0.00 | 0.05 | 0.05 | 80 | 991.7 |
| 20260903194819 | 75 | 225 | 1.0 | 2.0 | 0.00 | 0.05 | 0.05 | 81 | 991.8 |
| 20260903193818 | 74 | 0.0 | 1.0 | 0.00 | 0.05 | 0.05 | 81 | 992.0 | |
| 20260903192820 | 74 | 225 | 3.0 | 5.0 | 0.00 | 0.05 | 0.05 | 82 | 991.9 |
| 20260903191818 | 74 | 270 | 6.0 | 8.0 | 0.00 | 0.05 | 0.05 | 81 | 992.1 |
| 20260903190818 | 73 | 248 | 3.0 | 5.0 | 0.00 | 0.05 | 0.05 | 83 | 992.0 |
| 20260903185818 | 74 | 270 | 3.0 | 4.0 | 0.00 | 0.05 | 0.05 | 84 | 992.2 |
| 20260903184818 | 73 | 225 | 2.0 | 4.0 | 0.00 | 0.05 | 0.05 | 84 | 992.1 |
| 20260903183820 | 72 | 180 | 1.0 | 2.0 | 0.00 | 0.05 | 0.05 | 87 | 992.2 |
| 20260903182818 | 71 | 0.0 | 1.0 | 0.00 | 0.05 | 0.05 | 88 | 992.3 | |
| 20260903181818 | 70 | 0.0 | 2.0 | 0.00 | 0.05 | 0.05 | 88 | 992.5 | |
| 20260903180818 | 70 | 0.0 | 0.0 | 0.00 | 0.05 | 0.05 | 88 | 992.6 | |
| 20260903175818 | 70 | 0.0 | 0.0 | 0.00 | 0.05 | 0.05 | 89 | 992.6 | |
| 20260903174818 | 69 | 0.0 | 1.0 | 0.00 | 0.05 | 0.05 | 90 | 992.6 | |
| 20260903173818 | 68 | 0.0 | 1.0 | 0.00 | 0.05 | 0.05 | 91 | 992.7 | |
| 20260903172818 | 67 | 0.0 | 0.0 | 0.00 | 0.05 | 0.05 | 92 | 992.7 | |
| 20260903171818 | 67 | 0.0 | 0.0 | 0.00 | 0.05 | 0.05 | 92 | 992.9 | |
| 20260903170819 | 67 | 225 | 1.0 | 2.0 | 0.00 | 0.05 | 0.05 | 92 | 993.1 |
| 20260903165818 | 67 | 0.0 | 1.0 | 0.00 | 0.05 | 0.05 | 92 | 993.2 | |
| 20260903164820 | 67 | 225 | 1.0 | 2.0 | 0.00 | 0.05 | 0.05 | 93 | 993.2 |
| 20260903163820 | 66 | 0.0 | 0.0 | 0.00 | 0.05 | 0.05 | 94 | 993.0 | |
| 20260903162820 | 65 | 0.0 | 0.0 | 0.00 | 0.05 | 0.05 | 94 | 993.1 | |
| 20260903161818 | 65 | 0.0 | 0.0 | 0.00 | 0.05 | 0.05 | 95 | 993.1 | |
| 20260903160818 | 65 | 0.0 | 1.0 | 0.00 | 0.05 | 0.05 | 94 | 993.3 | |
| 20260903155819 | 65 | 0.0 | 1.0 | 0.00 | 0.05 | 0.05 | 95 | 993.2 | |
| 20260903154818 | 65 | 0.0 | 0.0 | 0.00 | 0.05 | 0.05 | 95 | 993.2 | |
| 20260903153818 | 64 | 0.0 | 1.0 | 0.00 | 0.05 | 0.05 | 96 | 993.4 | |
| 20260903152818 | 64 | 0.0 | 1.0 | 0.00 | 0.05 | 0.05 | 95 | 993.4 | |
| 20260903151818 | 64 | 225 | 2.0 | 4.0 | 0.00 | 0.05 | 0.05 | 96 | 993.5 |
| 20260903150818 | 64 | 0.0 | 0.0 | 0.00 | 0.05 | 0.05 | 96 | 993.6 | |
| 20260903145818 | 64 | 0.0 | 0.0 | 0.00 | 0.05 | 0.05 | 96 | 993.5 | |
| 20260903144818 | 63 | 0.0 | 0.0 | 0.00 | 0.05 | 0.05 | 96 | 993.5 | |
| 20260903143819 | 63 | 0.0 | 0.0 | 0.00 | 0.05 | 0.05 | 96 | 993.7 | |
| 20260903142817 | 63 | 0.0 | 0.0 | 0.00 | 0.05 | 0.05 | 96 | 993.8 | |
| 20260903141818 | 63 | 0.0 | 0.0 | 0.00 | 0.05 | 0.05 | 96 | 993.8 | |
| 20260903140818 | 63 | 0.0 | 0.0 | 0.00 | 0.05 | 0.05 | 96 | 993.8 | |
| 20260903135820 | 63 | 0.0 | 0.0 | 0.00 | 0.05 | 0.05 | 96 | 993.8 | |
| 20260903134819 | 63 | 225 | 2.0 | 3.0 | 0.00 | 0.05 | 0.05 | 96 | 993.8 |
| 20260903133820 | 63 | 0.0 | 0.0 | 0.00 | 0.05 | 0.05 | 96 | 993.8 | |
| 20260903132820 | 62 | 225 | 2.0 | 4.0 | 0.00 | 0.05 | 0.05 | 96 | 993.7 |
| 20260903131819 | 62 | 0.0 | 2.0 | 0.00 | 0.05 | 0.05 | 96 | 993.7 | |
| 20260903130820 | 62 | 225 | 3.0 | 6.0 | 0.00 | 0.05 | 0.05 | 96 | 993.7 |
| 20260903125820 | 62 | 248 | 3.0 | 4.0 | 0.00 | 0.05 | 0.05 | 96 | 993.8 |
| 20260903124820 | 61 | 225 | 5.0 | 7.0 | 0.00 | 0.05 | 0.05 | 96 | 993.8 |
| 20260903123820 | 61 | 225 | 4.0 | 7.0 | 0.00 | 0.05 | 0.05 | 96 | 993.8 |
| 20260903122819 | 61 | 225 | 1.0 | 3.0 | 0.00 | 0.05 | 0.05 | 96 | 993.8 |
| 20260903121820 | 61 | 0.0 | 1.0 | 0.00 | 0.05 | 0.05 | 96 | 993.9 | |
| 20260903120818 | 61 | 225 | 1.0 | 2.0 | 0.00 | 0.05 | 0.05 | 96 | 994.0 |
| 20260903115820 | 61 | 225 | 1.0 | 3.0 | 0.00 | 0.05 | 0.05 | 96 | 994.0 |
| 20260903114819 | 60 | 0.0 | 2.0 | 0.00 | 0.05 | 0.05 | 96 | 994.1 | |
| 20260903113819 | 60 | 0.0 | 1.0 | 0.00 | 0.05 | 0.05 | 96 | 994.2 | |
| 20260903112819 | 60 | 203 | 2.0 | 6.0 | 0.00 | 0.05 | 0.05 | 95 | 994.2 |
| 20260903111819 | 60 | 225 | 2.0 | 3.0 | 0.00 | 0.05 | 0.05 | 95 | 994.3 |
| 20260903110820 | 60 | 0.0 | 0.0 | 0.00 | 0.05 | 0.05 | 95 | 994.3 | |
| 20260903105820 | 60 | 203 | 3.0 | 5.0 | 0.00 | 0.05 | 0.05 | 95 | 994.3 |
| 20260903104821 | 60 | 225 | 3.0 | 7.0 | 0.00 | 0.05 | 0.05 | 95 | 994.2 |
| 20260903103820 | 60 | 225 | 2.0 | 4.0 | 0.00 | 0.05 | 0.05 | 95 | 994.2 |
| 20260903102820 | 60 | 225 | 1.0 | 3.0 | 0.00 | 0.05 | 0.05 | 95 | 994.0 |
| 20260903101819 | 60 | 0.0 | 1.0 | 0.00 | 0.05 | 0.05 | 95 | 994.0 | |
| 20260903100819 | 60 | 225 | 3.0 | 5.0 | 0.00 | 0.05 | 0.05 | 95 | 994.3 |
| 20260903095820 | 60 | 0.0 | 2.0 | 0.00 | 0.05 | 0.05 | 95 | 994.3 | |
| 20260903094820 | 60 | 0.0 | 3.0 | 0.00 | 0.05 | 0.05 | 95 | 994.2 | |
| 20260903093819 | 60 | 203 | 2.0 | 4.0 | 0.00 | 0.05 | 0.05 | 95 | 994.4 |
| 20260903092822 | 59 | 225 | 1.0 | 4.0 | 0.00 | 0.05 | 0.05 | 94 | 994.3 |
| 20260903091820 | 59 | 0.0 | 1.0 | 0.00 | 0.05 | 0.05 | 94 | 994.3 | |
| 20260903090819 | 60 | 225 | 2.0 | 6.0 | 0.00 | 0.05 | 0.05 | 94 | 994.3 |
| 20260903085819 | 60 | 0.0 | 1.0 | 0.00 | 0.05 | 0.05 | 94 | 994.5 | |
| 20260903084820 | 60 | 248 | 1.0 | 4.0 | 0.00 | 0.05 | 0.05 | 93 | 994.5 |
| 20260903083821 | 60 | 0.0 | 3.0 | 0.00 | 0.05 | 0.05 | 93 | 994.9 | |
| 20260903082819 | 60 | 0.0 | 2.0 | 0.00 | 0.05 | 0.05 | 93 | 994.9 | |
| 20260903081819 | 60 | 0.0 | 0.0 | 0.00 | 0.05 | 0.05 | 93 | 995.0 | |
| 20260903080820 | 60 | 0.0 | 3.0 | 0.00 | 0.05 | 0.05 | 93 | 994.9 | |
| 20260903075819 | 60 | 0.0 | 1.0 | 0.00 | 0.05 | 0.05 | 93 | 994.9 | |
| 20260903074819 | 60 | 180 | 1.0 | 4.0 | 0.00 | 0.05 | 0.05 | 93 | 995.0 |
| 20260903073819 | 60 | 0.0 | 1.0 | 0.00 | 0.05 | 0.05 | 92 | 995.0 | |
| 20260903072819 | 60 | 0.0 | 0.0 | 0.01 | 0.05 | 0.05 | 92 | 995.1 | |
| 20260903071819 | 60 | 0.0 | 0.0 | 0.01 | 0.05 | 0.05 | 92 | 995.3 | |
| 20260903070819 | 60 | 0.0 | 0.0 | 0.01 | 0.05 | 0.05 | 92 | 995.3 | |
| 20260903065820 | 60 | 225 | 2.0 | 4.0 | 0.02 | 0.05 | 0.05 | 92 | 995.4 |
| 20260903064819 | 60 | 225 | 1.0 | 3.0 | 0.03 | 0.05 | 0.05 | 91 | 995.2 |
| 20260903063819 | 60 | 0.0 | 2.0 | 0.05 | 0.05 | 0.05 | 92 | 995.0 | |
| 20260903062819 | 60 | 225 | 2.0 | 5.0 | 0.04 | 0.04 | 0.04 | 91 | 995.2 |
| 20260903061819 | 60 | 225 | 3.0 | 4.0 | 0.04 | 0.04 | 0.04 | 91 | 995.2 |
| 20260903060819 | 60 | 248 | 4.0 | 8.0 | 0.04 | 0.04 | 0.04 | 90 | 995.3 |
| 20260903055819 | 61 | 225 | 2.0 | 6.0 | 0.03 | 0.03 | 0.03 | 89 | 995.7 |
| 20260903054819 | 61 | 225 | 2.0 | 5.0 | 0.02 | 0.02 | 0.02 | 88 | 996.0 |
| 20260903053819 | 62 | 203 | 2.0 | 5.0 | 0.00 | 0.00 | 0.00 | 85 | 996.1 |
| 20260903052819 | 62 | 225 | 1.0 | 5.0 | 0.00 | 0.00 | 0.00 | 85 | 996.1 |
| 20260903051819 | 63 | 225 | 1.0 | 3.0 | 0.00 | 0.00 | 0.00 | 83 | 996.3 |
| 20260903050819 | 63 | 203 | 1.0 | 2.0 | 0.00 | 0.00 | 0.00 | 83 | 996.6 |
| 20260903045819 | 63 | 225 | 1.0 | 3.0 | 0.00 | 0.00 | 0.00 | 82 | 996.6 |
| 20260903044819 | 63 | 203 | 3.0 | 5.0 | 0.00 | 0.00 | 0.00 | 82 | 996.6 |
| 20260903043819 | 63 | 225 | 2.0 | 7.0 | 0.00 | 0.00 | 0.00 | 82 | 996.5 |
| 20260903042819 | 63 | 180 | 3.0 | 5.0 | 0.00 | 0.00 | 0.00 | 82 | 996.5 |
| 20260903041819 | 63 | 203 | 7.0 | 16.0 | 0.00 | 0.00 | 0.00 | 83 | 996.5 |
| 20260903040819 | 63 | 225 | 6.0 | 10.0 | 0.00 | 0.00 | 0.00 | 83 | 996.6 |
| 20260903035819 | 64 | 180 | 5.0 | 9.0 | 0.00 | 0.00 | 0.00 | 83 | 996.7 |
| 20260903034819 | 64 | 203 | 2.0 | 7.0 | 0.00 | 0.00 | 0.00 | 83 | 996.8 |
| 20260903033819 | 64 | 225 | 1.0 | 2.0 | 0.00 | 0.00 | 0.00 | 83 | 997.0 |
| 20260903032819 | 64 | 180 | 4.0 | 7.0 | 0.00 | 0.00 | 0.00 | 83 | 997.1 |
| 20260903031821 | 64 | 225 | 2.0 | 5.0 | 0.00 | 0.00 | 0.00 | 83 | 997.3 |
| 20260903030819 | 64 | 248 | 1.0 | 5.0 | 0.00 | 0.00 | 0.00 | 83 | 997.6 |
| 20260903025819 | 64 | 225 | 3.0 | 6.0 | 0.00 | 0.00 | 0.00 | 83 | 997.5 |
| 20260903024819 | 64 | 0.0 | 1.0 | 0.00 | 0.00 | 0.00 | 83 | 997.5 | |
| 20260903023907 | 64 | 225 | 1.0 | 4.0 | 0.00 | 0.00 | 0.00 | 83 | 997.5 |
| 20260903023720 | 64 | 180 | 3.0 | 8.0 | 0.00 | 0.00 | 0.00 | 83 | 997.6 |
| 20260903022719 | 64 | 0.0 | 2.0 | 0.00 | 0.00 | 0.00 | 83 | 997.6 | |
| 20260903021721 | 64 | 225 | 3.0 | 8.0 | 0.00 | 0.00 | 0.00 | 82 | 997.4 |
| 20260903020719 | 64 | 180 | 3.0 | 7.0 | 0.00 | 0.00 | 0.00 | 82 | 997.7 |
| 20260903015719 | 64 | 248 | 1.0 | 3.0 | 0.00 | 0.00 | 0.00 | 81 | 998.0 |
| 20260903014719 | 64 | 180 | 2.0 | 7.0 | 0.00 | 0.00 | 0.00 | 81 | 998.1 |
| 20260903013826 | 64 | 0.0 | 1.0 | 0.00 | 0.00 | 0.00 | 80 | 998.3 | |
| 20260903013535 | 64 | 248 | 5.0 | 8.0 | 0.00 | 0.00 | 0.00 | 80 | 998.3 |
| 20260903013222 | 64 | 248 | 1.0 | 4.0 | 0.00 | 0.00 | 0.00 | 80 | 998.3 |
| 20260903012819 | 64 | 158 | 1.0 | 9.0 | 0.00 | 0.00 | 0.00 | 80 | 998.2 |
| 20260903011821 | 64 | 180 | 1.0 | 2.0 | 0.00 | 0.00 | 0.00 | 80 | 998.0 |
| 20260903010818 | 64 | 0.0 | 2.0 | 0.00 | 0.00 | 0.00 | 80 | 998.0 | |
| 20260903005819 | 64 | 158 | 4.0 | 9.0 | 0.00 | 0.00 | 0.00 | 79 | 997.9 |
| 20260903004818 | 64 | 0.0 | 2.0 | 0.00 | 0.00 | 0.00 | 80 | 997.9 | |
| 20260903003819 | 64 | 203 | 3.0 | 12.0 | 0.00 | 0.00 | 0.00 | 80 | 997.9 |
| 20260903002819 | 64 | 225 | 5.0 | 14.0 | 0.00 | 0.00 | 0.00 | 80 | 997.7 |
| 20260903001819 | 64 | 203 | 2.0 | 5.0 | 0.00 | 0.00 | 0.00 | 80 | 997.5 |
| 20260903000819 | 64 | 225 | 4.0 | 8.0 | 0.00 | 0.00 | 0.00 | 81 | 997.3 |
| 20260902235819 | 64 | 180 | 3.0 | 6.0 | 0.00 | 0.00 | 0.00 | 82 | 997.4 |
| 20260902234819 | 65 | 225 | 1.0 | 3.0 | 0.00 | 0.00 | 0.00 | 83 | 997.0 |
| 20260902233818 | 65 | 158 | 5.0 | 11.0 | 0.00 | 0.00 | 0.00 | 83 | 997.3 |
| 20260902232819 | 65 | 203 | 2.0 | 9.0 | 0.00 | 0.00 | 0.00 | 85 | 997.7 |
| 20260902231818 | 65 | 180 | 2.0 | 6.0 | 0.00 | 0.00 | 0.00 | 85 | 998.2 |
| 20260902230818 | 65 | 0.0 | 1.0 | 0.00 | 0.00 | 0.00 | 85 | 998.6 | |
| 20260902225929 | 65 | 0.0 | 1.0 | 0.00 | 0.00 | 0.00 | 87 | 998.8 | |
| 20260902224818 | 65 | 0.0 | 0.0 | 0.00 | 0.00 | 0.00 | 86 | 999.0 | |
| 20260902223819 | 66 | 203 | 1.0 | 5.0 | 0.00 | 0.00 | 0.00 | 86 | 999.3 |
| 20260902222819 | 66 | 0.0 | 0.0 | 0.00 | 0.00 | 0.00 | 87 | 999.3 | |
| 20260902221818 | 66 | 0.0 | 0.0 | 0.00 | 0.00 | 0.00 | 87 | 999.3 | |
| 20260902220818 | 66 | 0.0 | 2.0 | 0.00 | 0.00 | 0.00 | 87 | 999.4 | |
| 20260902215819 | 66 | 0.0 | 0.0 | 0.00 | 0.00 | 0.00 | 87 | 999.4 | |
| 20260902214818 | 66 | 0.0 | 0.0 | 0.00 | 0.00 | 0.00 | 87 | 999.4 | |
| 20260902213818 | 66 | 0.0 | 1.0 | 0.00 | 0.00 | 0.00 | 86 | 999.3 | |
| 20260902212819 | 66 | 0.0 | 0.0 | 0.00 | 0.00 | 0.00 | 86 | 999.2 | |
| 20260902211819 | 67 | 0.0 | 2.0 | 0.00 | 0.00 | 0.00 | 85 | 999.2 | |
| 20260902210818 | 67 | 0.0 | 0.0 | 0.00 | 0.01 | 0.00 | 84 | 999.5 | |
| 20260902205818 | 67 | 0.0 | 3.0 | 0.00 | 0.01 | 0.00 | 83 | 999.6 | |
| 20260902204818 | 67 | 0.0 | 1.0 | 0.00 | 0.01 | 0.00 | 83 | 999.4 | |
| 20260902203818 | 67 | 113 | 1.0 | 3.0 | 0.00 | 0.01 | 0.00 | 84 | 999.4 |